| time (UTC) | temp F | wind direction | speed MPH | gust MPH | rain 1hr in | rain 24hr in | rain mn in | humidity % | barometer mb |
| 20260506192504 | 59 | 208 | 2.0 | 6.0 | 0.07 | 0.20 | 0.20 | 91 | 1006.0 |
| 20260506192003 | 59 | 300 | 3.0 | 15.0 | 0.07 | 0.20 | 0.20 | 91 | 1006.1 |
| 20260506191503 | 59 | 220 | 2.0 | 7.0 | 0.07 | 0.19 | 0.19 | 91 | 1006.0 |
| 20260506190505 | 59 | 209 | 2.0 | 6.0 | 0.07 | 0.18 | 0.18 | 91 | 1006.1 |
| 20260506190005 | 59 | 229 | 2.0 | 6.0 | 0.07 | 0.18 | 0.18 | 91 | 1006.0 |
| 20260506185503 | 60 | 221 | 3.0 | 9.0 | 0.07 | 0.18 | 0.18 | 91 | 1006.2 |
| 20260506185004 | 60 | 286 | 2.0 | 6.0 | 0.07 | 0.17 | 0.17 | 91 | 1006.1 |
| 20260506184504 | 60 | 184 | 3.0 | 7.0 | 0.06 | 0.16 | 0.16 | 91 | 1006.2 |
| 20260506183504 | 60 | 183 | 1.0 | 3.0 | 0.04 | 0.14 | 0.14 | 91 | 1006.3 |
| 20260506183004 | 60 | 267 | 2.0 | 6.0 | 0.03 | 0.13 | 0.13 | 91 | 1006.2 |
| 20260506182003 | 60 | 251 | 2.0 | 8.0 | 0.03 | 0.13 | 0.13 | 90 | 1006.3 |
| 20260506181004 | 59 | 233 | 2.0 | 5.0 | 0.02 | 0.12 | 0.12 | 90 | 1006.4 |
| 20260506180504 | 59 | 251 | 3.0 | 8.0 | 0.01 | 0.11 | 0.11 | 90 | 1006.5 |
| 20260506180005 | 59 | 295 | 2.0 | 5.0 | 0.02 | 0.11 | 0.11 | 90 | 1006.4 |
| 20260506175504 | 59 | 287 | 3.0 | 9.0 | 0.02 | 0.11 | 0.11 | 90 | 1006.4 |
| 20260506175004 | 59 | 220 | 2.0 | 7.0 | 0.01 | 0.10 | 0.10 | 90 | 1006.6 |
| 20260506174504 | 59 | 229 | 3.0 | 6.0 | 0.01 | 0.10 | 0.10 | 90 | 1006.7 |
| 20260506174004 | 59 | 223 | 5.0 | 7.0 | 0.02 | 0.10 | 0.10 | 90 | 1006.5 |
| 20260506172504 | 60 | 210 | 1.0 | 7.0 | 0.03 | 0.10 | 0.10 | 89 | 1006.5 |
| 20260506171004 | 60 | 224 | 2.0 | 7.0 | 0.05 | 0.10 | 0.10 | 89 | 1006.4 |
| 20260506170504 | 60 | 285 | 3.0 | 8.0 | 0.06 | 0.10 | 0.10 | 89 | 1006.5 |
| 20260506170002 | 60 | 213 | 2.0 | 8.0 | 0.05 | 0.09 | 0.09 | 89 | 1006.5 |
| 20260506165502 | 60 | 167 | 2.0 | 7.0 | 0.06 | 0.09 | 0.09 | 89 | 1006.2 |
| 20260506165003 | 60 | 185 | 3.0 | 9.0 | 0.06 | 0.09 | 0.09 | 89 | 1006.2 |
| 20260506164502 | 60 | 198 | 3.0 | 10.0 | 0.07 | 0.09 | 0.09 | 88 | 1006.5 |
| 20260506164003 | 60 | 160 | 6.0 | 10.0 | 0.06 | 0.08 | 0.08 | 89 | 1006.5 |
| 20260506163502 | 60 | 151 | 1.0 | 3.0 | 0.06 | 0.08 | 0.08 | 89 | 1006.5 |
| 20260506162003 | 61 | 184 | 4.0 | 12.0 | 0.06 | 0.07 | 0.07 | 88 | 1006.9 |
| 20260506161502 | 61 | 201 | 2.0 | 6.0 | 0.05 | 0.06 | 0.06 | 88 | 1007.0 |
| 20260506161002 | 61 | 168 | 3.0 | 7.0 | 0.05 | 0.05 | 0.05 | 87 | 1007.2 |
| 20260506160507 | 61 | 198 | 2.0 | 7.0 | 0.04 | 0.04 | 0.04 | 87 | 1007.3 |
| 20260506160002 | 61 | 194 | 5.0 | 10.0 | 0.04 | 0.04 | 0.04 | 86 | 1007.4 |
| 20260506155503 | 61 | 182 | 3.0 | 7.0 | 0.03 | 0.03 | 0.03 | 86 | 1007.5 |
| 20260506155002 | 61 | 223 | 2.0 | 6.0 | 0.03 | 0.03 | 0.03 | 86 | 1007.6 |
| 20260506154502 | 62 | 187 | 2.0 | 5.0 | 0.02 | 0.02 | 0.02 | 86 | 1007.5 |
| 20260506154003 | 62 | 217 | 2.0 | 6.0 | 0.02 | 0.02 | 0.02 | 86 | 1007.4 |
| 20260506153502 | 62 | 187 | 2.0 | 5.0 | 0.02 | 0.02 | 0.02 | 86 | 1007.4 |
| 20260506152502 | 62 | 193 | 2.0 | 3.0 | 0.02 | 0.02 | 0.02 | 85 | 1007.3 |
| 20260506152003 | 62 | 172 | 2.0 | 6.0 | 0.01 | 0.01 | 0.01 | 84 | 1007.4 |
| 20260506151503 | 62 | 174 | 3.0 | 7.0 | 0.01 | 0.01 | 0.01 | 83 | 1007.4 |
| 20260506151002 | 63 | 201 | 1.0 | 5.0 | 0.00 | 0.00 | 0.00 | 82 | 1007.6 |
| 20260506150502 | 63 | 171 | 3.0 | 6.0 | 0.00 | 0.00 | 0.00 | 81 | 1007.5 |
| 20260506150003 | 63 | 189 | 2.0 | 3.0 | 0.00 | 0.00 | 0.00 | 80 | 1007.7 |
| 20260506145502 | 63 | 165 | 3.0 | 8.0 | 0.00 | 0.00 | 0.00 | 79 | 1007.8 |
| 20260506145002 | 63 | 206 | 3.0 | 6.0 | 0.00 | 0.00 | 0.00 | 78 | 1007.8 |
| 20260506144503 | 63 | 238 | 5.0 | 8.0 | 0.00 | 0.00 | 0.00 | 78 | 1007.8 |
| 20260506144002 | 64 | 206 | 2.0 | 8.0 | 0.00 | 0.00 | 0.00 | 77 | 1007.6 |
| 20260506143503 | 64 | 172 | 2.0 | 9.0 | 0.00 | 0.00 | 0.00 | 77 | 1007.7 |
| 20260506143002 | 64 | 225 | 3.0 | 13.0 | 0.00 | 0.00 | 0.00 | 77 | 1007.7 |
| 20260506142503 | 64 | 214 | 3.0 | 8.0 | 0.00 | 0.00 | 0.00 | 77 | 1007.6 |
| 20260506142002 | 64 | 202 | 4.0 | 8.0 | 0.00 | 0.00 | 0.00 | 77 | 1007.6 |
| 20260506141503 | 64 | 176 | 2.0 | 6.0 | 0.00 | 0.00 | 0.00 | 77 | 1007.5 |
| 20260506141003 | 64 | 250 | 2.0 | 9.0 | 0.00 | 0.00 | 0.00 | 77 | 1007.6 |
| 20260506140503 | 64 | 197 | 1.0 | 9.0 | 0.00 | 0.00 | 0.00 | 77 | 1007.6 |
| 20260506140002 | 64 | 174 | 2.0 | 10.0 | 0.00 | 0.00 | 0.00 | 76 | 1007.5 |
| 20260506135002 | 64 | 225 | 2.0 | 9.0 | 0.00 | 0.00 | 0.00 | 76 | 1007.7 |
| 20260506134503 | 64 | 269 | 2.0 | 7.0 | 0.00 | 0.00 | 0.00 | 76 | 1007.7 |
| 20260506133503 | 64 | 159 | 4.0 | 10.0 | 0.00 | 0.00 | 0.00 | 75 | 1007.7 |
| 20260506133003 | 64 | 190 | 5.0 | 13.0 | 0.00 | 0.00 | 0.00 | 75 | 1007.8 |
| 20260506132502 | 64 | 160 | 5.0 | 15.0 | 0.00 | 0.00 | 0.00 | 75 | 1007.8 |
| 20260506132003 | 64 | 204 | 4.0 | 12.0 | 0.00 | 0.00 | 0.00 | 75 | 1007.8 |
| 20260506131503 | 65 | 239 | 4.0 | 9.0 | 0.00 | 0.00 | 0.00 | 75 | 1007.7 |
| 20260506131003 | 64 | 234 | 4.0 | 9.0 | 0.00 | 0.00 | 0.00 | 76 | 1007.3 |
| 20260506130503 | 64 | 174 | 4.0 | 12.0 | 0.00 | 0.00 | 0.00 | 76 | 1007.6 |
| 20260506130003 | 64 | 143 | 4.0 | 8.0 | 0.00 | 0.00 | 0.00 | 76 | 1007.6 |
| 20260506125503 | 64 | 193 | 3.0 | 9.0 | 0.00 | 0.00 | 0.00 | 76 | 1007.7 |
| 20260506125002 | 64 | 175 | 3.0 | 6.0 | 0.00 | 0.00 | 0.00 | 76 | 1007.6 |
| 20260506124502 | 64 | 195 | 1.0 | 10.0 | 0.00 | 0.00 | 0.00 | 77 | 1007.5 |
| 20260506124002 | 64 | 194 | 3.0 | 8.0 | 0.00 | 0.00 | 0.00 | 77 | 1007.5 |
| 20260506123503 | 64 | 222 | 5.0 | 9.0 | 0.00 | 0.00 | 0.00 | 77 | 1007.4 |
| 20260506123002 | 63 | 167 | 4.0 | 9.0 | 0.00 | 0.00 | 0.00 | 77 | 1007.5 |
| 20260506122503 | 63 | 171 | 4.0 | 7.0 | 0.00 | 0.00 | 0.00 | 78 | 1007.5 |
| 20260506122003 | 63 | 189 | 3.0 | 7.0 | 0.00 | 0.00 | 0.00 | 78 | 1007.5 |
| 20260506121502 | 63 | 213 | 2.0 | 12.0 | 0.00 | 0.00 | 0.00 | 78 | 1007.7 |
| 20260506121003 | 63 | 166 | 3.0 | 12.0 | 0.00 | 0.00 | 0.00 | 78 | 1007.6 |
| 20260506120502 | 63 | 226 | 3.0 | 6.0 | 0.00 | 0.00 | 0.00 | 79 | 1007.7 |
| 20260506115503 | 63 | 150 | 3.0 | 7.0 | 0.00 | 0.00 | 0.00 | 79 | 1007.9 |
| 20260506115003 | 63 | 166 | 2.0 | 8.0 | 0.00 | 0.00 | 0.00 | 79 | 1007.7 |
| 20260506114502 | 63 | 178 | 3.0 | 10.0 | 0.00 | 0.00 | 0.00 | 79 | 1007.9 |
| 20260506114003 | 62 | 230 | 2.0 | 9.0 | 0.00 | 0.00 | 0.00 | 79 | 1007.8 |
| 20260506113503 | 62 | 182 | 5.0 | 12.0 | 0.00 | 0.00 | 0.00 | 79 | 1007.8 |
| 20260506112503 | 62 | 178 | 5.0 | 12.0 | 0.00 | 0.00 | 0.00 | 79 | 1007.9 |
| 20260506112003 | 62 | 134 | 3.0 | 6.0 | 0.00 | 0.00 | 0.00 | 79 | 1007.6 |
| 20260506111502 | 62 | 160 | 2.0 | 5.0 | 0.00 | 0.00 | 0.00 | 80 | 1007.8 |
| 20260506111003 | 62 | 158 | 3.0 | 6.0 | 0.00 | 0.00 | 0.00 | 80 | 1007.7 |
| 20260506110502 | 62 | 183 | 2.0 | 7.0 | 0.00 | 0.00 | 0.00 | 80 | 1007.6 |
| 20260506110002 | 62 | 174 | 2.0 | 8.0 | 0.00 | 0.00 | 0.00 | 80 | 1007.7 |
| 20260506105503 | 62 | 151 | 3.0 | 7.0 | 0.00 | 0.00 | 0.00 | 80 | 1007.6 |
| 20260506105002 | 62 | 180 | 2.0 | 6.0 | 0.00 | 0.00 | 0.00 | 80 | 1007.6 |
| 20260506104503 | 62 | 157 | 5.0 | 10.0 | 0.00 | 0.00 | 0.00 | 80 | 1007.5 |
| 20260506103503 | 62 | 169 | 2.0 | 9.0 | 0.00 | 0.00 | 0.00 | 80 | 1007.3 |
| 20260506103002 | 62 | 161 | 5.0 | 13.0 | 0.00 | 0.00 | 0.00 | 80 | 1007.5 |
| 20260506102502 | 62 | 214 | 4.0 | 7.0 | 0.00 | 0.00 | 0.00 | 80 | 1007.5 |
| 20260506102002 | 62 | 189 | 6.0 | 12.0 | 0.00 | 0.00 | 0.00 | 80 | 1007.5 |
| 20260506101003 | 62 | 185 | 4.0 | 13.0 | 0.00 | 0.00 | 0.00 | 80 | 1007.2 |
| 20260506100502 | 62 | 211 | 3.0 | 8.0 | 0.00 | 0.00 | 0.00 | 80 | 1007.2 |
| 20260506100004 | 62 | 170 | 5.0 | 9.0 | 0.00 | 0.00 | 0.00 | 80 | 1007.4 |
| 20260506095502 | 62 | 174 | 4.0 | 10.0 | 0.00 | 0.00 | 0.00 | 80 | 1007.5 |
| 20260506095003 | 62 | 176 | 5.0 | 12.0 | 0.00 | 0.00 | 0.00 | 80 | 1007.3 |
| 20260506094502 | 62 | 185 | 2.0 | 8.0 | 0.00 | 0.00 | 0.00 | 80 | 1007.2 |
| 20260506094003 | 62 | 145 | 2.0 | 8.0 | 0.00 | 0.00 | 0.00 | 79 | 1007.2 |
| 20260506092503 | 63 | 156 | 5.0 | 10.0 | 0.00 | 0.00 | 0.00 | 78 | 1007.4 |
| 20260506092002 | 63 | 173 | 3.0 | 7.0 | 0.00 | 0.00 | 0.00 | 78 | 1007.4 |
| 20260506091503 | 63 | 142 | 3.0 | 7.0 | 0.00 | 0.00 | 0.00 | 78 | 1007.4 |
| 20260506091003 | 63 | 158 | 3.0 | 7.0 | 0.00 | 0.00 | 0.00 | 78 | 1007.4 |
| 20260506090503 | 63 | 144 | 3.0 | 10.0 | 0.00 | 0.00 | 0.00 | 78 | 1007.5 |
| 20260506090003 | 63 | 181 | 4.0 | 12.0 | 0.00 | 0.00 | 0.00 | 78 | 1007.4 |
| 20260506085003 | 63 | 184 | 3.0 | 8.0 | 0.00 | 0.00 | 0.00 | 77 | 1007.6 |
| 20260506084502 | 63 | 163 | 3.0 | 9.0 | 0.00 | 0.00 | 0.00 | 76 | 1007.6 |
| 20260506084003 | 63 | 177 | 4.0 | 9.0 | 0.00 | 0.00 | 0.00 | 76 | 1007.6 |
| 20260506083503 | 63 | 163 | 3.0 | 9.0 | 0.00 | 0.00 | 0.00 | 76 | 1007.6 |
| 20260506082502 | 63 | 162 | 3.0 | 10.0 | 0.00 | 0.00 | 0.00 | 75 | 1007.6 |
| 20260506081002 | 64 | 164 | 4.0 | 10.0 | 0.00 | 0.00 | 0.00 | 73 | 1007.7 |
| 20260506073503 | 65 | 194 | 2.0 | 5.0 | 0.00 | 0.00 | 0.00 | 70 | 1007.9 |
| 20260506073003 | 65 | 213 | 3.0 | 6.0 | 0.00 | 0.00 | 0.00 | 70 | 1007.8 |
| 20260506072502 | 65 | 209 | 3.0 | 9.0 | 0.00 | 0.00 | 0.00 | 69 | 1007.9 |
| 20260506072006 | 65 | 155 | 3.0 | 10.0 | 0.00 | 0.00 | 0.00 | 69 | 1008.0 |
| 20260506071002 | 65 | 263 | 3.0 | 10.0 | 0.00 | 0.00 | 0.00 | 68 | 1007.9 |
| 20260506070502 | 65 | 212 | 3.0 | 12.0 | 0.00 | 0.00 | 0.00 | 67 | 1007.8 |
| 20260506062502 | 66 | 176 | 3.0 | 8.0 | 0.00 | 0.00 | 0.00 | 65 | 1008.3 |
| 20260506062003 | 66 | 203 | 3.0 | 9.0 | 0.00 | 0.00 | 0.00 | 64 | 1008.3 |
| 20260506061503 | 66 | 175 | 3.0 | 8.0 | 0.00 | 0.00 | 0.00 | 64 | 1008.4 |
| 20260506061003 | 66 | 306 | 3.0 | 9.0 | 0.00 | 0.00 | 0.00 | 64 | 1008.2 |
| 20260506060503 | 66 | 176 | 5.0 | 10.0 | 0.00 | 0.00 | 0.00 | 64 | 1008.3 |
| 20260506051002 | 67 | 190 | 3.0 | 7.0 | 0.00 | 0.00 | 0.00 | 63 | 1008.6 |
| 20260506050503 | 67 | 188 | 3.0 | 10.0 | 0.00 | 0.00 | 0.00 | 63 | 1008.5 |
| 20260506045002 | 67 | 200 | 5.0 | 17.0 | 0.00 | 0.00 | 0.00 | 63 | 1008.7 |
| 20260506044503 | 67 | 194 | 5.0 | 9.0 | 0.00 | 0.00 | 0.00 | 63 | 1008.8 |
| 20260506043503 | 67 | 186 | 6.0 | 16.0 | 0.00 | 0.00 | 0.00 | 63 | 1008.6 |
| 20260506043002 | 67 | 232 | 3.0 | 12.0 | 0.00 | 0.00 | 0.00 | 63 | 1008.5 |
| 20260506042503 | 67 | 188 | 4.0 | 9.0 | 0.00 | 0.00 | 0.00 | 63 | 1008.5 |
| 20260506042003 | 67 | 168 | 3.0 | 10.0 | 0.00 | 0.00 | 0.00 | 63 | 1008.5 |
| 20260506041502 | 67 | 181 | 8.0 | 20.0 | 0.00 | 0.00 | 0.00 | 62 | 1008.6 |
| 20260506040503 | 67 | 187 | 5.0 | 12.0 | 0.00 | 0.00 | 0.00 | 62 | 1008.6 |
| 20260506040002 | 67 | 179 | 5.0 | 14.0 | 0.00 | 0.00 | 0.00 | 62 | 1008.6 |
| 20260506035503 | 67 | 151 | 5.0 | 9.0 | 0.00 | 0.00 | 0.00 | 62 | 1008.5 |
| 20260506035003 | 67 | 131 | 5.0 | 17.0 | 0.00 | 0.00 | 0.00 | 62 | 1008.6 |
| 20260506034503 | 67 | 175 | 6.0 | 9.0 | 0.00 | 0.00 | 0.00 | 62 | 1008.5 |
| 20260506034003 | 68 | 173 | 3.0 | 10.0 | 0.00 | 0.00 | 0.00 | 61 | 1008.5 |
| 20260506033503 | 68 | 197 | 6.0 | 12.0 | 0.00 | 0.00 | 0.00 | 60 | 1008.6 |
| 20260506033003 | 68 | 174 | 3.0 | 12.0 | 0.00 | 0.00 | 0.00 | 60 | 1008.6 |
| 20260506032503 | 68 | 195 | 5.0 | 9.0 | 0.00 | 0.00 | 0.00 | 59 | 1008.6 |
| 20260506032003 | 68 | 195 | 5.0 | 10.0 | 0.00 | 0.00 | 0.00 | 58 | 1008.6 |
| 20260506031503 | 69 | 148 | 4.0 | 9.0 | 0.00 | 0.00 | 0.00 | 57 | 1008.5 |
| 20260506031003 | 69 | 189 | 6.0 | 10.0 | 0.00 | 0.00 | 0.00 | 56 | 1008.6 |
| 20260506030002 | 69 | 166 | 2.0 | 12.0 | 0.00 | 0.00 | 0.00 | 55 | 1008.5 |
| 20260506025503 | 69 | 190 | 4.0 | 8.0 | 0.00 | 0.00 | 0.00 | 54 | 1008.6 |
| 20260506025002 | 69 | 188 | 5.0 | 15.0 | 0.00 | 0.00 | 0.00 | 53 | 1008.5 |
| 20260506024507 | 70 | 162 | 4.0 | 8.0 | 0.00 | 0.00 | 0.00 | 53 | 1008.4 |
| 20260506024002 | 70 | 166 | 6.0 | 14.0 | 0.00 | 0.00 | 0.00 | 52 | 1008.5 |
| 20260506023503 | 70 | 186 | 3.0 | 7.0 | 0.00 | 0.00 | 0.00 | 51 | 1008.6 |
| 20260506023006 | 70 | 177 | 3.0 | 9.0 | 0.00 | 0.00 | 0.00 | 51 | 1008.6 |
| 20260506022003 | 71 | 155 | 3.0 | 12.0 | 0.00 | 0.00 | 0.00 | 50 | 1008.4 |
| 20260506020502 | 71 | 173 | 3.0 | 9.0 | 0.00 | 0.00 | 0.00 | 49 | 1008.5 |
| 20260506015503 | 72 | 191 | 3.0 | 12.0 | 0.00 | 0.00 | 0.00 | 48 | 1008.5 |
| 20260506015002 | 72 | 137 | 3.0 | 9.0 | 0.00 | 0.00 | 0.00 | 48 | 1008.5 |
| 20260506014503 | 72 | 202 | 4.0 | 9.0 | 0.00 | 0.00 | 0.00 | 48 | 1008.4 |
| 20260506013502 | 72 | 232 | 3.0 | 8.0 | 0.00 | 0.00 | 0.00 | 48 | 1008.5 |
| 20260506013003 | 72 | 213 | 2.0 | 5.0 | 0.00 | 0.00 | 0.00 | 48 | 1008.4 |
| 20260506012502 | 72 | 164 | 4.0 | 12.0 | 0.00 | 0.00 | 0.00 | 48 | 1008.3 |
| 20260506012003 | 72 | 180 | 5.0 | 10.0 | 0.00 | 0.00 | 0.00 | 47 | 1008.3 |
| 20260506011503 | 72 | 203 | 5.0 | 9.0 | 0.00 | 0.00 | 0.00 | 47 | 1008.2 |
| 20260506011002 | 73 | 114 | 3.0 | 7.0 | 0.00 | 0.00 | 0.00 | 46 | 1008.3 |
| 20260506010503 | 73 | 221 | 2.0 | 12.0 | 0.00 | 0.00 | 0.00 | 46 | 1008.1 |
| 20260506005503 | 73 | 245 | 4.0 | 9.0 | 0.00 | 0.00 | 0.00 | 44 | 1008.1 |
| 20260506004002 | 73 | 214 | 4.0 | 8.0 | 0.00 | 0.00 | 0.00 | 42 | 1008.0 |
| 20260506003505 | 74 | 163 | 2.0 | 5.0 | 0.00 | 0.00 | 0.00 | 42 | 1007.9 |
| 20260506003002 | 74 | 193 | 3.0 | 6.0 | 0.00 | 0.00 | 0.00 | 42 | 1007.8 |
| 20260506002503 | 74 | 165 | 3.0 | 10.0 | 0.00 | 0.00 | 0.00 | 42 | 1007.8 |
| 20260506002003 | 74 | 133 | 3.0 | 12.0 | 0.00 | 0.00 | 0.00 | 41 | 1007.7 |
| 20260506001504 | 74 | 207 | 3.0 | 7.0 | 0.00 | 0.00 | 0.00 | 41 | 1007.7 |
| 20260506001002 | 74 | 170 | 2.0 | 6.0 | 0.00 | 0.00 | 0.00 | 41 | 1007.6 |
| 20260506000503 | 74 | 191 | 1.0 | 7.0 | 0.00 | 0.00 | 0.00 | 41 | 1007.6 |
| 20260506000003 | 75 | 176 | 3.0 | 6.0 | 0.00 | 0.00 | 0.00 | 40 | 1007.5 |
| 20260505235502 | 75 | 181 | 3.0 | 10.0 | 0.00 | 0.00 | 0.00 | 40 | 1007.7 |
| 20260505234003 | 75 | 210 | 3.0 | 10.0 | 0.00 | 0.00 | 0.00 | 39 | 1007.5 |
| 20260505233503 | 75 | 199 | 3.0 | 7.0 | 0.00 | 0.00 | 0.00 | 39 | 1007.6 |
| 20260505232502 | 75 | 134 | 4.0 | 9.0 | 0.00 | 0.00 | 0.00 | 38 | 1007.5 |
| 20260505232003 | 76 | 221 | 3.0 | 9.0 | 0.00 | 0.00 | 0.00 | 38 | 1007.6 |
| 20260505231503 | 76 | 219 | 3.0 | 8.0 | 0.00 | 0.00 | 0.00 | 38 | 1007.5 |
| 20260505231003 | 76 | 185 | 3.0 | 6.0 | 0.00 | 0.00 | 0.00 | 38 | 1007.4 |
| 20260505230503 | 76 | 317 | 1.0 | 10.0 | 0.00 | 0.00 | 0.00 | 38 | 1007.3 |
| 20260505230002 | 76 | 235 | 3.0 | 9.0 | 0.00 | 0.00 | 0.00 | 37 | 1007.4 |
| 20260505225503 | 76 | 266 | 3.0 | 8.0 | 0.00 | 0.00 | 0.00 | 37 | 1007.4 |
| 20260505225003 | 76 | 239 | 4.0 | 12.0 | 0.00 | 0.00 | 0.00 | 37 | 1007.4 |
| 20260505224502 | 77 | 202 | 5.0 | 12.0 | 0.00 | 0.00 | 0.00 | 37 | 1007.2 |
| 20260505224003 | 77 | 244 | 5.0 | 10.0 | 0.00 | 0.00 | 0.00 | 36 | 1007.2 |
| 20260505223502 | 77 | 233 | 3.0 | 9.0 | 0.00 | 0.00 | 0.00 | 36 | 1007.3 |
| 20260505223003 | 77 | 223 | 3.0 | 6.0 | 0.00 | 0.00 | 0.00 | 36 | 1007.1 |
| 20260505222502 | 77 | 304 | 6.0 | 13.0 | 0.00 | 0.00 | 0.00 | 35 | 1007.0 |
| 20260505222003 | 78 | 259 | 5.0 | 10.0 | 0.00 | 0.00 | 0.00 | 35 | 1007.1 |
| 20260505221503 | 78 | 279 | 5.0 | 12.0 | 0.00 | 0.00 | 0.00 | 35 | 1007.0 |
| 20260505221002 | 79 | 260 | 2.0 | 6.0 | 0.00 | 0.00 | 0.00 | 35 | 1006.9 |
| 20260505220502 | 79 | 222 | 4.0 | 14.0 | 0.00 | 0.00 | 0.00 | 35 | 1007.0 |
| 20260505220002 | 79 | 205 | 3.0 | 12.0 | 0.00 | 0.00 | 0.00 | 34 | 1007.0 |
| 20260505215502 | 79 | 242 | 5.0 | 14.0 | 0.00 | 0.00 | 0.00 | 34 | 1006.9 |
| 20260505215003 | 79 | 196 | 5.0 | 13.0 | 0.00 | 0.00 | 0.00 | 34 | 1006.7 |
| 20260505214502 | 79 | 224 | 7.0 | 18.0 | 0.00 | 0.00 | 0.00 | 33 | 1006.7 |
| 20260505213503 | 80 | 244 | 7.0 | 17.0 | 0.00 | 0.00 | 0.00 | 34 | 1006.8 |
| 20260505212503 | 80 | 252 | 6.0 | 15.0 | 0.00 | 0.00 | 0.00 | 33 | 1006.7 |
| 20260505211502 | 80 | 198 | 6.0 | 14.0 | 0.00 | 0.00 | 0.00 | 33 | 1006.8 |
| 20260505211003 | 80 | 221 | 3.0 | 9.0 | 0.00 | 0.00 | 0.00 | 34 | 1006.7 |
| 20260505210502 | 79 | 150 | 2.0 | 7.0 | 0.00 | 0.00 | 0.00 | 33 | 1006.4 |
| 20260505210003 | 79 | 183 | 5.0 | 12.0 | 0.00 | 0.00 | 0.00 | 32 | 1006.5 |
| 20260505205506 | 80 | 192 | 3.0 | 10.0 | 0.00 | 0.00 | 0.00 | 32 | 1006.3 |
| 20260505204503 | 81 | 259 | 6.0 | 12.0 | 0.00 | 0.00 | 0.00 | 31 | 1006.4 |
| 20260505204003 | 81 | 267 | 6.0 | 16.0 | 0.00 | 0.00 | 0.00 | 32 | 1006.3 |
| 20260505203505 | 81 | 239 | 4.0 | 12.0 | 0.00 | 0.00 | 0.00 | 33 | 1006.3 |
| 20260505203003 | 81 | 186 | 3.0 | 12.0 | 0.00 | 0.00 | 0.00 | 33 | 1006.5 |
| 20260505202503 | 80 | 248 | 3.0 | 17.0 | 0.00 | 0.00 | 0.00 | 32 | 1006.5 |
| 20260505202002 | 81 | 256 | 9.0 | 17.0 | 0.00 | 0.00 | 0.00 | 32 | 1006.7 |
| 20260505201502 | 81 | 199 | 3.0 | 12.0 | 0.00 | 0.00 | 0.00 | 33 | 1006.6 |
| 20260505200503 | 80 | 281 | 7.0 | 17.0 | 0.00 | 0.00 | 0.00 | 32 | 1006.6 |
| 20260505200003 | 81 | 202 | 7.0 | 14.0 | 0.00 | 0.00 | 0.00 | 30 | 1006.7 |
| 20260505195503 | 81 | 275 | 6.0 | 15.0 | 0.00 | 0.00 | 0.00 | 32 | 1006.7 |
| 20260505195003 | 81 | 288 | 7.0 | 15.0 | 0.00 | 0.00 | 0.00 | 31 | 1006.7 |
| 20260505194003 | 81 | 207 | 7.0 | 16.0 | 0.00 | 0.00 | 0.00 | 33 | 1006.8 |
| 20260505193003 | 82 | 216 | 5.0 | 12.0 | 0.00 | 0.00 | 0.00 | 34 | 1006.7 |